This is the latest recevied weather packets stored in our database for station/object KE8GJZ-1. If no packets are shown the sender has not sent any weather packets the latest 10 day(s).
| Time | Temp. | Humidity | Pressure | Rain* | Wind** | Luminosity | Snow |
|---|---|---|---|---|---|---|---|
| 1777639308 | 5° C | 89% | 1011.7 hPa | 0 mm | - | 59 W/m² | - |
| 1777639003 | 5° C | 89% | 1011.4 hPa | 0 mm | - | 42 W/m² | - |
| 1777638699 | 5° C | 90% | 1011.7 hPa | 0 mm | - | 40 W/m² | - |
| 1777638396 | 5° C | 91% | 1011.8 hPa | 0 mm | - | 31 W/m² | - |
| 1777638093 | 5° C | 91% | 1011.6 hPa | 0 mm | - | 34 W/m² | - |
| 1777637789 | 5° C | 91% | 1011.6 hPa | 0 mm | - | 29 W/m² | - |
| 1777637485 | 5° C | 92% | 1011.4 hPa | 0 mm | - | 31 W/m² | - |
| 1777637183 | 5° C | 92% | 1011.4 hPa | 0 mm | - | 25 W/m² | - |
| 1777636880 | 5° C | 92% | 1011.5 hPa | 0 mm | - | 31 W/m² | - |
| 1777636271 | 4.44° C | 93% | 1011.4 hPa | 0 mm | - | 32 W/m² | - |
| 1777635662 | 4.44° C | 93% | 1011.3 hPa | 0 mm | - | 23 W/m² | - |
| 1777635359 | 4.44° C | 94% | 1011.3 hPa | 0 mm | - | 17 W/m² | - |
| 1777635056 | 4.44° C | 94% | 1011.1 hPa | 0 mm | - | 16 W/m² | - |
| 1777634752 | 4.44° C | 94% | 1011.4 hPa | 0 mm | - | 12 W/m² | - |
| 1777634449 | 4.44° C | 94% | 1011.4 hPa | 0 mm | - | 19 W/m² | - |
| 1777634146 | 4.44° C | 94% | 1011.5 hPa | 0 mm | - | 11 W/m² | - |
| 1777633842 | 4.44° C | 94% | 1011.4 hPa | 0 mm | - | 12 W/m² | - |
| 1777633540 | 4.44° C | 94% | 1011.3 hPa | 0 mm | - | 10 W/m² | - |
| 1777633238 | 4.44° C | 94% | 1011.3 hPa | 0 mm | - | 6 W/m² | - |
| 1777632025 | 4.44° C | 93% | 1011.4 hPa | 0 mm | - | 1 W/m² | - |
| 1777631723 | 4.44° C | 93% | 1011.3 hPa | 0 mm | - | 0 W/m² | - |
| 1777631421 | 4.44° C | 93% | 1011.3 hPa | 0 mm | - | 0 W/m² | - |
| 1777631117 | 4.44° C | 93% | 1011.2 hPa | 0 mm | - | 0 W/m² | - |
| 1777630815 | 4.44° C | 93% | 1011 hPa | 0 mm | - | 0 W/m² | - |
| 1777630510 | 4.44° C | 92% | 1010.9 hPa | 0 mm | - | 0 W/m² | - |
* Rain latest hour (hover to see other rain measurements)
** Current wind speed in m/s (hover to see current wind gust speed)